Погода в Улунди

ЮАР     28°19′55″S   31°24′54″E
темп.,
°C
ветер,
м/с
пор.,
м/с
влажн.,
%
обл.,
%
осадки,
мм/ч
давл.,
гПа
погр.,
м
4 июля, пн
пн423:00+15з22400 0.0 102218
02:00+14з22440 0.0 102229
05:00+13зсз34480 0.0 102253
08:00+14з23470 0.0 102479
11:00+23юв12270 0.0 1024809
14:00+24вюв33310 0.0 10221542
17:00+18юв36660 0.0 1023164
20:00+14зюз11900 0.0 102511
5 июля, вт
вт523:00+13з11930 0.0 102611
02:00+12з11920 0.0 102511
05:00+12з21860 0.0 102413
08:00+14зсз12640 0.0 102572
11:00+22с23360 0.0 1023708
14:00+25ссв24280 0.0 10191718
17:00+20св36430 0.0 1018114
20:00+16сз22600 0.0 102014
6 июля, ср
ср623:00+15зсз22600 0.0 102023
02:00+14зсз22590 0.0 101836
05:00+14зсз32550 0.0 101833
08:00+16ююз12480 0.0 102071
11:00+21ююв435620 0.0 10221174
14:00+20ююв665862 0.0 10221221
17:00+17ююв466840 0.0 1024739
20:00+13юз22860 0.0 102723
7 июля, чт
чт723:00+14з238097 0.0 1027111
02:00+15з227340 0.0 102763
05:00+12з22850 0.0 102721
08:00+13з12760 0.0 102890
11:00+20с12490 0.0 1026832
14:00+23св23360 0.0 10231349
17:00+19всв22510 0.0 102412
20:00+14юв11800 0.0 102711
8 июля, пт
пт823:00+13з11890 0.0 102810
02:00+12зсз21890 0.0 102713
05:00+11зсз22880 0.0 102713
08:00+14зсз12750 0.0 102872
11:00+22ссв23450 0.0 1027699
14:00+25св34320 0.0 10231243
17:00+20ссв37480 0.0 1024149
20:00+15с11670 0.0 102611